STARLINK-1788, 46689

Orbit data source: Space-Track

STARLINK-1788, 46689 is a payload satellite owned by SpaceX/Seattle (US) in LEO that was launched on Sun, 18 Oct 2020 UTC via an FALCON 9 launch vehicle from the Air Force Eastern Test Range (AFETR). Payload-class satellites include a variety of spacecraft equipped with specific instruments for various scientific and technological missions. These include communications satellites like Starlink; space stations such as the ISS; scientific satellites like the Hubble; Earth observation satellites from companies like Planet Labs, Umbra, and HawkEye 360; GPS; miniature CubeSats for education and research; and military/defense satellites.

Loading next visibility...
Identifier
46689, 2020-073V
Orbit
LEO
Country
Flag of USUS
Related business
Manufacturer
SpaceX/Seattle
Mission
Partially operational Commercial Communications
Bus & Motor
STARLINK, Unknown motor
Mass
260 kg wet, ~248 kg dry
Launch date (UTC)
2020-10-18 (5 years ago)
Launch vehicle
FALCON 9
Launch site
Air Force Eastern Test Range (AFETR)
Object type
Payload
Rocket body
Debris
Shape & HBR
Box + 1 Pan, 10.1 m
Radar Cross Section
13.562 m², Large (>1 m²)

Expand to show TLE details & history
Last TLE update: 19 hours ago

TLE from 19 hours ago
0 STARLINK-1788
1 46689U 20073V   25340.92972559  .00041523  00000-0  95920-3 0  9990
2 46689  53.0533 304.5751 0009591  62.3358 297.8619 15.42092946284301
Epoch: 2025-12-06T22:18Z
TLE epoch observation values (Epoch: 2025-12-06T22:18:48.290Z)
Latitude
-0.00004°
Longitude
-106.07654°
Altitude
437.775 km
Speed
7.652 km/s
True Right ascension
20h 18m 18s
True Declination
0° 00' 00"
Sunlit
Object was in daylight at epoch
Visualization orbit readout
Latitude
Unknown
Longitude
Unknown
Altitude
Unknown
Speed
Unknown
Apparent Right ascension
Unknown
Apparent Declination
Unknown
Sunlit
N/A
Visualization observer readout
Local Sidereal Time
15:14:50
Azimuth
Unknown
Elevation
Unknown
Doppler factor
Unknown
Orbital elements
Apogee altitude
446.748 km
Perigee altitude
433.669 km
Semi-major axis
6,818.345 km
Eccentricity
0.00096
Inclination
53.0533°
RAAN
304.5751°
Arg. of periapsis
62.3358°
True anomaly
297.76468°
Mean anomaly
297.8619°
Eccentric anomaly
297.8133°
Mean motion
3.855 °/min
Orbital period
93.39 mins
BSTAR
0.0009592
Loading maneuver chart data...
Computing Atmospheric mass density...

Documentation

Showing up to 5 results
|